Time,TemperatureF,DewpointF,PressureIn,WindDirection,WindDirectionDegrees,WindSpeedMPH,WindSpeedGustMPH,Humidity,HourlyPrecipIn,Conditions,Clouds,dailyrainin,SoftwareType,DateUTC
2013-07-10 00:01:00,77.2,75.7,30.01,WNW,292,0.0,0.0,95,0.00,CLR,FEW,0.00,WeatherDisplay:10.37,2013-07-10 05:01:00,
2013-07-10 00:06:00,77.1,75.6,30.01,WNW,293,0.0,0.0,95,0.00,CLR,FEW,0.00,WeatherDisplay:10.37,2013-07-10 05:06:00,
2013-07-10 00:11:00,77.1,75.6,30.01,WNW,292,0.0,0.0,95,0.00,CLR,FEW,0.00,WeatherDisplay:10.37,2013-07-10 05:11:00,
2013-07-10 00:16:00,77.0,75.5,30.01,WNW,292,0.0,0.0,95,0.00,CLR,FEW,0.00,WeatherDisplay:10.37,2013-07-10 05:16:00,
2013-07-10 00:21:00,77.0,75.5,30.01,WNW,293,0.0,0.0,95,0.00,CLR,FEW,0.00,WeatherDisplay:10.37,2013-07-10 05:21:00,
2013-07-10 00:26:00,77.0,75.5,30.01,WNW,293,0.0,0.0,95,0.00,CLR,FEW,0.00,WeatherDisplay:10.37,2013-07-10 05:26:00,
2013-07-10 00:31:00,76.9,75.4,30.00,WNW,292,0.0,0.0,95,0.00,CLR,FEW,0.00,WeatherDisplay:10.37,2013-07-10 05:31:00,
2013-07-10 00:36:00,76.9,75.4,30.00,WNW,292,0.0,0.0,95,0.00,CLR,FEW,0.00,WeatherDisplay:10.37,2013-07-10 05:36:00,
2013-07-10 00:41:00,76.8,75.3,30.00,WNW,292,0.0,0.0,95,0.00,CLR,FEW,0.00,WeatherDisplay:10.37,2013-07-10 05:41:00,
2013-07-10 00:46:00,76.8,75.3,30.00,WNW,292,0.0,0.0,95,0.00,CLR,FEW,0.00,WeatherDisplay:10.37,2013-07-10 05:46:00,
2013-07-10 00:51:00,76.7,75.2,30.00,WNW,292,0.0,0.0,95,0.00,CLR,FEW,0.00,WeatherDisplay:10.37,2013-07-10 05:51:00,
2013-07-10 00:56:00,76.7,75.2,30.00,WNW,292,0.0,0.0,95,0.00,CLR,FEW,0.00,WeatherDisplay:10.37,2013-07-10 05:56:00,
2013-07-10 01:01:00,76.7,75.2,30.00,WNW,292,0.0,0.0,95,0.00,CLR,FEW,0.00,WeatherDisplay:10.37,2013-07-10 06:01:00,
2013-07-10 01:06:00,76.7,75.2,30.00,WNW,292,0.0,0.0,95,0.00,CLR,FEW,0.00,WeatherDisplay:10.37,2013-07-10 06:06:00,
2013-07-10 01:11:00,76.7,75.2,30.00,WNW,292,0.0,0.0,95,0.00,CLR,FEW,0.00,WeatherDisplay:10.37,2013-07-10 06:11:00,
2013-07-10 01:16:00,76.7,75.2,30.00,WNW,292,0.0,0.0,95,0.00,CLR,FEW,0.00,WeatherDisplay:10.37,2013-07-10 06:16:00,
2013-07-10 01:21:00,76.6,75.1,30.00,WNW,292,0.0,0.0,95,0.00,CLR,FEW,0.00,WeatherDisplay:10.37,2013-07-10 06:21:00,
2013-07-10 01:26:00,76.6,75.1,30.00,WNW,292,0.0,0.0,95,0.00,CLR,FEW,0.00,WeatherDisplay:10.37,2013-07-10 06:26:00,
2013-07-10 01:31:00,76.5,75.0,29.99,WNW,292,0.0,0.0,95,0.00,CLR,FEW,0.00,WeatherDisplay:10.37,2013-07-10 06:31:00,
2013-07-10 01:36:00,76.5,75.0,29.99,WNW,292,0.0,0.0,95,0.00,CLR,FEW,0.00,WeatherDisplay:10.37,2013-07-10 06:36:00,
2013-07-10 01:41:00,76.4,74.9,29.99,WNW,285,0.0,0.0,95,0.00,CLR,FEW,0.00,WeatherDisplay:10.37,2013-07-10 06:41:00,
2013-07-10 01:46:00,76.3,74.8,29.99,WNW,285,0.0,0.0,95,0.00,CLR,FEW,0.00,WeatherDisplay:10.37,2013-07-10 06:46:00,
2013-07-10 01:51:00,76.3,74.8,29.99,SW,225,0.0,0.0,95,0.00,CLR,FEW,0.00,WeatherDisplay:10.37,2013-07-10 06:51:00,
2013-07-10 01:56:00,76.4,74.5,29.99,SW,225,0.0,0.0,94,0.00,CLR,FEW,0.00,WeatherDisplay:10.37,2013-07-10 06:56:00,
2013-07-10 02:01:00,76.4,74.5,29.99,SW,234,0.0,0.0,94,0.00,CLR,FEW,0.00,WeatherDisplay:10.37,2013-07-10 07:01:00,
2013-07-10 02:06:00,76.3,74.4,29.99,SW,234,0.0,0.0,94,0.00,CLR,FEW,0.00,WeatherDisplay:10.37,2013-07-10 07:06:00,
2013-07-10 02:11:00,76.3,74.4,29.99,SW,234,0.0,0.0,94,0.00,CLR,FEW,0.00,WeatherDisplay:10.37,2013-07-10 07:11:00,
2013-07-10 02:16:00,76.2,74.3,29.99,SW,234,0.0,0.0,94,0.00,CLR,FEW,0.00,WeatherDisplay:10.37,2013-07-10 07:16:00,
2013-07-10 02:21:00,76.2,74.7,29.99,SW,234,0.0,0.0,95,0.00,CLR,FEW,0.00,WeatherDisplay:10.37,2013-07-10 07:21:00,
2013-07-10 02:27:00,76.1,74.6,29.99,SW,234,0.0,0.0,95,0.00,CLR,FEW,0.00,WeatherDisplay:10.37,2013-07-10 07:27:00,
2013-07-10 02:32:00,76.0,74.5,29.99,SW,234,0.0,0.0,95,0.00,CLR,FEW,0.00,WeatherDisplay:10.37,2013-07-10 07:32:00,
2013-07-10 02:37:00,75.9,74.4,29.99,SW,234,0.0,0.0,95,0.00,CLR,FEW,0.00,WeatherDisplay:10.37,2013-07-10 07:37:00,
2013-07-10 02:42:00,75.8,74.3,29.99,SW,234,0.0,0.0,95,0.00,CLR,FEW,0.00,WeatherDisplay:10.37,2013-07-10 07:42:00,
2013-07-10 02:47:00,75.7,74.2,29.99,SW,234,0.0,0.0,95,0.00,CLR,FEW,0.00,WeatherDisplay:10.37,2013-07-10 07:47:00,
2013-07-10 02:52:00,75.6,74.1,29.99,SW,234,0.0,0.0,95,0.00,CLR,FEW,0.00,WeatherDisplay:10.37,2013-07-10 07:52:00,
2013-07-10 02:57:00,75.6,74.1,29.99,SW,234,0.0,0.0,95,0.00,CLR,FEW,0.00,WeatherDisplay:10.37,2013-07-10 07:57:00,
2013-07-10 03:02:00,75.6,74.1,29.99,West,262,0.0,0.0,95,0.00,FEW,,0.00,WeatherDisplay:10.37,2013-07-10 08:02:00,
2013-07-10 03:07:00,75.7,74.2,30.00,West,262,0.0,0.0,95,0.00,FEW,,0.00,WeatherDisplay:10.37,2013-07-10 08:07:00,
2013-07-10 03:12:00,75.7,74.2,30.00,SW,234,0.0,0.0,95,0.00,FEW,,0.00,WeatherDisplay:10.37,2013-07-10 08:12:00,
2013-07-10 03:17:00,75.7,74.2,29.99,South,172,0.0,0.0,95,0.00,FEW,,0.00,WeatherDisplay:10.37,2013-07-10 08:17:00,
2013-07-10 03:22:00,75.8,74.3,29.99,SSW,194,0.0,0.0,95,0.00,FEW,,0.00,WeatherDisplay:10.37,2013-07-10 08:22:00,
2013-07-10 03:27:00,76.0,74.1,30.00,SSW,194,0.0,0.0,94,0.00,FEW,,0.00,WeatherDisplay:10.37,2013-07-10 08:27:00,
2013-07-10 03:32:00,76.2,74.3,30.00,SSW,194,0.0,0.0,94,0.00,FEW,,0.00,WeatherDisplay:10.37,2013-07-10 08:32:00,
2013-07-10 03:37:00,76.3,74.4,30.00,WSW,257,0.0,0.0,94,0.00,FEW,,0.00,WeatherDisplay:10.37,2013-07-10 08:37:00,
2013-07-10 03:42:00,76.4,74.5,30.00,WSW,257,0.0,0.0,94,0.00,FEW,,0.00,WeatherDisplay:10.37,2013-07-10 08:42:00,
2013-07-10 03:47:00,76.4,74.2,30.00,WSW,257,0.0,0.0,93,0.00,FEW,,0.00,WeatherDisplay:10.37,2013-07-10 08:47:00,
2013-07-10 03:52:00,76.4,74.2,29.99,SSW,213,0.0,0.0,93,0.00,FEW,,0.00,WeatherDisplay:10.37,2013-07-10 08:52:00,
2013-07-10 03:57:00,76.6,74.4,29.99,SSW,213,0.0,0.0,93,0.00,FEW,,0.00,WeatherDisplay:10.37,2013-07-10 08:57:00,
2013-07-10 04:02:00,76.7,74.5,29.99,SSW,213,0.0,0.0,93,0.00,SCT,FEW,0.00,WeatherDisplay:10.37,2013-07-10 09:02:00,
2013-07-10 04:07:00,76.7,74.2,29.99,SSW,213,0.0,0.0,92,0.00,SCT,FEW,0.00,WeatherDisplay:10.37,2013-07-10 09:07:00,
2013-07-10 04:12:00,76.7,74.2,29.99,SSW,213,0.0,0.0,92,0.00,SCT,FEW,0.00,WeatherDisplay:10.37,2013-07-10 09:12:00,
2013-07-10 04:17:00,76.6,74.4,29.99,SSW,213,0.0,0.0,93,0.00,SCT,FEW,0.00,WeatherDisplay:10.37,2013-07-10 09:17:00,
2013-07-10 04:22:00,76.3,74.1,29.99,SSW,213,0.0,0.0,93,0.00,SCT,FEW,0.00,WeatherDisplay:10.37,2013-07-10 09:22:00,
2013-07-10 04:27:00,76.2,74.0,29.99,SSW,213,0.0,0.0,93,0.00,SCT,FEW,0.00,WeatherDisplay:10.37,2013-07-10 09:27:00,
2013-07-10 04:32:00,76.1,73.9,29.99,SSW,213,0.0,0.0,93,0.00,SCT,FEW,0.00,WeatherDisplay:10.37,2013-07-10 09:32:00,
2013-07-10 04:37:00,76.0,74.1,29.99,SSW,213,0.0,0.0,94,0.00,SCT,FEW,0.00,WeatherDisplay:10.37,2013-07-10 09:37:00,
2013-07-10 04:42:00,75.9,74.0,29.99,SSW,213,0.0,0.0,94,0.00,SCT,FEW,0.00,WeatherDisplay:10.37,2013-07-10 09:42:00,
2013-07-10 04:47:00,75.8,73.9,29.99,SSW,213,0.0,0.0,94,0.00,SCT,FEW,0.00,WeatherDisplay:10.37,2013-07-10 09:47:00,
2013-07-10 04:52:00,75.7,73.8,29.99,SSW,213,0.0,0.0,94,0.00,SCT,FEW,0.00,WeatherDisplay:10.37,2013-07-10 09:52:00,
2013-07-10 04:57:00,75.7,73.8,29.99,SSW,209,0.0,0.0,94,0.00,SCT,FEW,0.00,WeatherDisplay:10.37,2013-07-10 09:57:00,
2013-07-10 05:02:00,75.6,73.8,29.99,SSW,209,0.0,0.0,94,0.00,CLR,FEW,0.00,WeatherDisplay:10.37,2013-07-10 10:02:00,
2013-07-10 05:07:00,75.5,73.7,29.98,SSW,209,0.0,0.0,94,0.00,CLR,FEW,0.00,WeatherDisplay:10.37,2013-07-10 10:07:00,
2013-07-10 05:12:00,75.4,73.6,29.98,SSW,209,0.0,0.0,94,0.00,CLR,FEW,0.00,WeatherDisplay:10.37,2013-07-10 10:12:00,
2013-07-10 05:17:00,75.4,73.6,29.98,SSW,209,0.0,0.0,94,0.00,CLR,FEW,0.00,WeatherDisplay:10.37,2013-07-10 10:17:00,
2013-07-10 05:22:00,75.4,73.6,29.98,SSW,209,0.0,0.0,94,0.00,CLR,FEW,0.00,WeatherDisplay:10.37,2013-07-10 10:22:00,
2013-07-10 05:27:00,75.4,73.6,29.98,SSW,209,0.0,0.0,94,0.00,CLR,FEW,0.00,WeatherDisplay:10.37,2013-07-10 10:27:00,
2013-07-10 05:32:00,75.4,73.6,29.98,SSW,209,0.0,0.0,94,0.00,CLR,FEW,0.00,WeatherDisplay:10.37,2013-07-10 10:32:00,
2013-07-10 05:37:00,75.3,73.5,29.98,SSW,209,0.0,0.0,94,0.00,CLR,FEW,0.00,WeatherDisplay:10.37,2013-07-10 10:37:00,
2013-07-10 05:42:00,75.3,73.8,29.98,SSW,209,0.0,0.0,95,0.00,CLR,FEW,0.00,WeatherDisplay:10.37,2013-07-10 10:42:00,
2013-07-10 05:47:00,75.2,73.7,29.99,SSW,209,0.0,0.0,95,0.00,CLR,FEW,0.00,WeatherDisplay:10.37,2013-07-10 10:47:00,
2013-07-10 05:52:00,75.2,73.7,29.99,SSW,209,0.0,0.0,95,0.00,CLR,FEW,0.00,WeatherDisplay:10.37,2013-07-10 10:52:00,
2013-07-10 05:57:00,75.1,73.6,29.99,SSW,209,0.0,0.0,95,0.00,CLR,FEW,0.00,WeatherDisplay:10.37,2013-07-10 10:57:00,
2013-07-10 06:02:00,75.1,73.6,29.99,SSW,209,0.0,0.0,95,0.00,FEW,,0.00,WeatherDisplay:10.37,2013-07-10 11:02:00,
2013-07-10 06:07:00,75.1,73.6,29.99,SSW,209,0.0,0.0,95,0.00,FEW,,0.00,WeatherDisplay:10.37,2013-07-10 11:07:00,
2013-07-10 06:12:00,75.1,73.6,29.98,SSW,209,0.0,0.0,95,0.00,FEW,,0.00,WeatherDisplay:10.37,2013-07-10 11:12:00,
2013-07-10 06:17:00,75.1,73.6,29.98,SSW,209,0.0,0.0,95,0.00,FEW,,0.00,WeatherDisplay:10.37,2013-07-10 11:17:00,
2013-07-10 06:22:00,75.2,73.7,29.98,SSW,209,0.0,0.0,95,0.00,FEW,,0.00,WeatherDisplay:10.37,2013-07-10 11:22:00,
2013-07-10 06:27:00,75.3,73.8,29.98,SSW,209,0.0,0.0,95,0.00,FEW,,0.00,WeatherDisplay:10.37,2013-07-10 11:27:00,
2013-07-10 06:32:00,75.5,74.0,29.98,SSW,209,0.0,0.0,95,0.00,FEW,,0.00,WeatherDisplay:10.37,2013-07-10 11:32:00,
2013-07-10 06:37:00,75.7,74.2,29.98,SSW,209,0.0,0.0,95,0.00,FEW,,0.00,WeatherDisplay:10.37,2013-07-10 11:37:00,
2013-07-10 06:42:00,76.0,74.5,29.98,SSW,207,0.0,0.0,95,0.00,FEW,,0.00,WeatherDisplay:10.37,2013-07-10 11:42:00,
2013-07-10 06:47:00,76.4,74.5,29.98,SSW,207,0.0,0.0,94,0.00,FEW,,0.00,WeatherDisplay:10.37,2013-07-10 11:47:00,
2013-07-10 06:52:00,76.9,74.7,29.98,SSW,209,0.0,0.0,93,0.00,FEW,,0.00,WeatherDisplay:10.37,2013-07-10 11:52:00,
2013-07-10 06:57:00,77.4,74.9,29.98,SSW,209,0.0,0.0,92,0.00,FEW,,0.00,WeatherDisplay:10.37,2013-07-10 11:57:00,
2013-07-10 07:02:00,77.9,75.1,29.98,SSW,209,0.0,0.0,91,0.00,CLR,FEW,0.00,WeatherDisplay:10.37,2013-07-10 12:02:00,
2013-07-10 07:07:00,78.2,75.0,29.99,SSW,208,0.0,0.0,90,0.00,CLR,FEW,0.00,WeatherDisplay:10.37,2013-07-10 12:07:00,
2013-07-10 07:12:00,78.5,75.0,29.99,SW,223,0.0,0.0,89,0.00,CLR,FEW,0.00,WeatherDisplay:10.37,2013-07-10 12:12:00,
2013-07-10 07:17:00,78.8,75.3,29.99,South,190,0.0,0.0,89,0.00,CLR,FEW,0.00,WeatherDisplay:10.37,2013-07-10 12:17:00,
2013-07-10 07:22:00,79.2,75.3,29.99,SSW,210,0.0,0.0,88,0.00,CLR,FEW,0.00,WeatherDisplay:10.37,2013-07-10 12:22:00,
2013-07-10 07:27:00,79.5,75.6,29.99,West,263,0.0,0.0,88,0.00,CLR,FEW,0.00,WeatherDisplay:10.37,2013-07-10 12:27:00,
2013-07-10 07:32:00,79.8,75.6,29.99,West,273,0.0,0.0,87,0.00,CLR,FEW,0.00,WeatherDisplay:10.37,2013-07-10 12:32:00,
2013-07-10 07:37:00,80.3,75.7,29.99,SE,128,4.6,4.6,86,0.00,CLR,FEW,0.00,WeatherDisplay:10.37,2013-07-10 12:37:00,
2013-07-10 07:42:00,80.5,75.9,29.99,SE,136,0.0,0.0,86,0.00,CLR,FEW,0.00,WeatherDisplay:10.37,2013-07-10 12:42:00,
2013-07-10 07:48:00,80.8,75.9,29.99,SSE,168,3.5,3.5,85,0.00,CLR,FEW,0.00,WeatherDisplay:10.37,2013-07-10 12:48:00,
2013-07-10 07:53:00,81.0,75.7,29.99,SSE,163,0.0,0.0,84,0.00,CLR,FEW,0.00,WeatherDisplay:10.37,2013-07-10 12:53:00,
2013-07-10 07:58:00,81.2,75.9,29.99,South,177,0.0,0.0,84,0.00,CLR,FEW,0.00,WeatherDisplay:10.37,2013-07-10 12:58:00,
2013-07-10 08:03:00,81.3,75.6,29.99,SW,232,0.0,0.0,83,0.00,CLR,FEW,0.00,WeatherDisplay:10.37,2013-07-10 13:03:00,
2013-07-10 08:08:00,81.5,75.8,29.99,SW,233,0.0,0.0,83,0.00,CLR,FEW,0.00,WeatherDisplay:10.37,2013-07-10 13:08:00,
2013-07-10 08:13:00,81.6,75.9,29.99,SSW,209,2.3,0.0,83,0.00,CLR,FEW,0.00,WeatherDisplay:10.37,2013-07-10 13:13:00,
2013-07-10 08:18:00,81.8,75.8,29.99,SW,229,0.0,0.0,82,0.00,CLR,FEW,0.00,WeatherDisplay:10.37,2013-07-10 13:18:00,
2013-07-10 08:23:00,82.0,76.3,30.00,NNE,20,0.0,0.0,83,0.00,CLR,FEW,0.00,WeatherDisplay:10.37,2013-07-10 13:23:00,
2013-07-10 08:28:00,82.0,76.3,29.99,SW,218,0.0,0.0,83,0.00,CLR,FEW,0.00,WeatherDisplay:10.37,2013-07-10 13:28:00,
2013-07-10 08:33:00,82.2,76.5,30.00,SW,215,6.9,6.9,83,0.00,CLR,FEW,0.00,WeatherDisplay:10.37,2013-07-10 13:33:00,
2013-07-10 08:38:00,82.7,76.3,30.00,WNW,285,0.0,0.0,81,0.00,CLR,FEW,0.00,WeatherDisplay:10.37,2013-07-10 13:38:00,
2013-07-10 08:43:00,83.4,76.2,30.00,WSW,257,0.0,0.0,79,0.00,CLR,FEW,0.00,WeatherDisplay:10.37,2013-07-10 13:43:00,
2013-07-10 08:48:00,84.1,76.9,30.00,NW,306,0.0,0.0,79,0.00,CLR,FEW,0.00,WeatherDisplay:10.37,2013-07-10 13:48:00,
2013-07-10 08:53:00,83.9,75.5,30.00,South,183,0.0,0.0,76,0.00,CLR,FEW,0.00,WeatherDisplay:10.37,2013-07-10 13:53:00,
2013-07-10 08:58:00,83.4,75.4,30.00,SSE,166,0.0,0.0,77,0.00,CLR,FEW,0.00,WeatherDisplay:10.37,2013-07-10 13:58:00,
2013-07-10 09:03:00,82.9,75.7,30.00,South,184,0.0,0.0,79,0.00,FEW,,0.00,WeatherDisplay:10.37,2013-07-10 14:03:00,
2013-07-10 09:08:00,82.6,75.4,30.00,WSW,242,0.0,0.0,79,0.00,FEW,,0.00,WeatherDisplay:10.37,2013-07-10 14:08:00,
2013-07-10 09:13:00,82.2,75.4,30.00,SW,235,0.0,0.0,80,0.00,FEW,,0.00,WeatherDisplay:10.37,2013-07-10 14:13:00,
2013-07-10 09:18:00,81.8,75.0,30.00,South,176,0.0,0.0,80,0.00,FEW,,0.00,WeatherDisplay:10.37,2013-07-10 14:18:00,
2013-07-10 09:23:00,81.6,75.2,30.00,WSW,238,0.0,0.0,81,0.00,FEW,,0.00,WeatherDisplay:10.37,2013-07-10 14:23:00,
2013-07-10 09:28:00,81.5,75.1,30.00,WSW,238,0.0,0.0,81,0.00,FEW,,0.00,WeatherDisplay:10.37,2013-07-10 14:28:00,
2013-07-10 09:33:00,81.4,75.7,29.99,SW,232,0.0,0.0,83,0.00,FEW,,0.00,WeatherDisplay:10.37,2013-07-10 14:33:00,
2013-07-10 09:38:00,81.2,76.3,29.99,SW,232,0.0,0.0,85,0.00,FEW,,0.00,WeatherDisplay:10.37,2013-07-10 14:38:00,
2013-07-10 09:43:00,80.9,76.3,29.99,SW,232,0.0,0.0,86,0.00,FEW,,0.00,WeatherDisplay:10.37,2013-07-10 14:43:00,
2013-07-10 09:48:00,80.7,76.1,29.99,SW,232,0.0,0.0,86,0.00,FEW,,0.00,WeatherDisplay:10.37,2013-07-10 14:48:00,
2013-07-10 09:53:00,80.9,76.0,29.98,SSW,192,0.0,0.0,85,0.00,FEW,,0.00,WeatherDisplay:10.37,2013-07-10 14:53:00,
2013-07-10 09:58:00,81.2,75.5,29.98,SSW,194,0.0,0.0,83,0.00,FEW,,0.00,WeatherDisplay:10.37,2013-07-10 14:58:00,
2013-07-10 10:03:00,81.6,75.9,29.97,SSW,196,0.0,0.0,83,0.00,FEW,,0.00,WeatherDisplay:10.37,2013-07-10 15:03:00,
2013-07-10 10:08:00,82.2,76.2,29.97,SSE,158,0.0,0.0,82,0.00,FEW,,0.00,WeatherDisplay:10.37,2013-07-10 15:08:00,
2013-07-10 10:13:00,83.0,77.3,29.96,SSW,204,0.0,0.0,83,0.00,FEW,,0.00,WeatherDisplay:10.37,2013-07-10 15:13:00,
2013-07-10 10:18:00,83.9,76.7,29.96,WSW,242,5.8,5.8,79,0.00,FEW,,0.00,WeatherDisplay:10.37,2013-07-10 15:18:00,
2013-07-10 10:23:00,84.4,77.2,29.97,SSW,206,2.3,2.3,79,0.00,FEW,,0.00,WeatherDisplay:10.37,2013-07-10 15:23:00,
2013-07-10 10:28:00,84.5,76.9,29.97,NNE,24,5.8,5.8,78,0.00,FEW,,0.00,WeatherDisplay:10.37,2013-07-10 15:28:00,
2013-07-10 10:33:00,84.7,77.8,29.97,SW,225,0.0,0.0,80,0.00,FEW,,0.00,WeatherDisplay:10.37,2013-07-10 15:33:00,
2013-07-10 10:38:00,85.2,78.3,29.97,WNW,296,0.0,0.0,80,0.00,FEW,,0.00,WeatherDisplay:10.37,2013-07-10 15:38:00,
2013-07-10 10:43:00,85.5,77.1,29.97,South,189,8.1,8.1,76,0.00,FEW,,0.00,WeatherDisplay:10.37,2013-07-10 15:43:00,
2013-07-10 10:48:00,85.8,77.4,29.97,SW,223,3.2,3.2,76,0.00,FEW,,0.00,WeatherDisplay:10.37,2013-07-10 15:48:00,
2013-07-10 10:53:00,85.9,77.5,29.97,SW,234,3.5,0.0,76,0.00,FEW,,0.00,WeatherDisplay:10.37,2013-07-10 15:53:00,
2013-07-10 10:58:00,86.4,78.3,29.97,SSW,212,5.8,5.8,77,0.00,FEW,,0.00,WeatherDisplay:10.37,2013-07-10 15:58:00,
2013-07-10 11:03:00,86.8,78.7,29.97,ESE,121,0.0,0.0,77,0.00,FEW,,0.00,WeatherDisplay:10.37,2013-07-10 16:03:00,
2013-07-10 11:08:00,87.0,78.5,29.97,SW,218,0.0,0.0,76,0.00,FEW,,0.00,WeatherDisplay:10.37,2013-07-10 16:08:00,
2013-07-10 11:13:00,87.2,78.7,29.97,SSW,195,0.0,2.1,76,0.00,FEW,,0.00,WeatherDisplay:10.37,2013-07-10 16:13:00,
2013-07-10 11:18:00,87.2,77.9,29.97,South,182,6.9,6.9,74,0.00,FEW,,0.00,WeatherDisplay:10.37,2013-07-10 16:18:00,
2013-07-10 11:23:00,87.1,78.2,29.98,South,188,2.3,0.0,75,0.00,FEW,,0.00,WeatherDisplay:10.37,2013-07-10 16:23:00,
2013-07-10 11:28:00,87.4,77.7,29.98,WSW,248,1.2,0.0,73,0.00,FEW,,0.00,WeatherDisplay:10.37,2013-07-10 16:28:00,
2013-07-10 11:33:00,87.4,77.7,29.98,SW,232,8.1,8.1,73,0.00,FEW,,0.00,WeatherDisplay:10.37,2013-07-10 16:33:00,
2013-07-10 11:38:00,87.4,78.5,29.98,NW,311,0.0,0.0,75,0.00,FEW,,0.00,WeatherDisplay:10.37,2013-07-10 16:38:00,
2013-07-10 11:43:00,87.6,77.9,29.98,SW,229,3.5,0.0,73,0.00,FEW,,0.00,WeatherDisplay:10.37,2013-07-10 16:43:00,
2013-07-10 11:48:00,87.5,79.0,29.98,West,271,4.6,4.6,76,0.00,FEW,,0.00,WeatherDisplay:10.37,2013-07-10 16:48:00,
2013-07-10 11:53:00,87.2,77.1,29.98,ESE,123,1.2,0.0,72,0.00,FEW,,0.00,WeatherDisplay:10.37,2013-07-10 16:53:00,
2013-07-10 11:58:00,86.8,77.5,29.98,SW,232,0.0,1.5,74,0.00,FEW,,0.00,WeatherDisplay:10.37,2013-07-10 16:58:00,
2013-07-10 12:03:00,86.5,77.6,29.98,SSW,201,0.0,0.0,75,0.00,SCT,FEW,0.00,WeatherDisplay:10.37,2013-07-10 17:03:00,
2013-07-10 12:08:00,86.5,77.6,29.98,WSW,248,0.0,0.0,75,0.00,SCT,FEW,0.00,WeatherDisplay:10.37,2013-07-10 17:08:00,
2013-07-10 12:13:00,86.6,78.5,29.98,WSW,243,0.0,0.0,77,0.00,SCT,FEW,0.00,WeatherDisplay:10.37,2013-07-10 17:13:00,
2013-07-10 12:18:00,87.0,78.5,29.98,West,277,0.0,0.0,76,0.00,SCT,FEW,0.00,WeatherDisplay:10.37,2013-07-10 17:18:00,
2013-07-10 12:23:00,87.2,78.7,29.99,West,264,0.0,0.0,76,0.00,SCT,FEW,0.00,WeatherDisplay:10.37,2013-07-10 17:23:00,
2013-07-10 12:28:00,87.3,78.0,29.99,SSW,207,0.0,0.8,74,0.00,SCT,FEW,0.00,WeatherDisplay:10.37,2013-07-10 17:28:00,
2013-07-10 12:33:00,87.4,78.9,29.99,WNW,298,0.0,0.0,76,0.00,SCT,FEW,0.00,WeatherDisplay:10.37,2013-07-10 17:33:00,
2013-07-10 12:38:00,88.0,77.8,29.98,NE,42,0.0,0.0,72,0.00,SCT,FEW,0.00,WeatherDisplay:10.37,2013-07-10 17:38:00,
2013-07-10 12:43:00,88.6,80.1,29.98,West,271,0.0,0.0,76,0.00,SCT,FEW,0.00,WeatherDisplay:10.37,2013-07-10 17:43:00,
2013-07-10 12:48:00,89.1,80.1,29.97,SSW,205,4.6,4.6,75,0.00,SCT,FEW,0.00,WeatherDisplay:10.37,2013-07-10 17:48:00,
2013-07-10 12:54:00,89.3,79.1,29.97,SW,219,0.0,0.0,72,0.00,SCT,FEW,0.00,WeatherDisplay:10.37,2013-07-10 17:54:00,
2013-07-10 12:59:00,89.6,78.9,29.97,WSW,251,1.2,0.0,71,0.00,SCT,FEW,0.00,WeatherDisplay:10.37,2013-07-10 17:59:00,
2013-07-10 13:04:00,89.8,79.6,29.97,WNW,292,5.8,5.8,72,0.00,SCT,FEW,0.00,WeatherDisplay:10.37,2013-07-10 18:04:00,
2013-07-10 13:09:00,89.7,78.2,29.97,West,264,0.0,0.0,69,0.00,SCT,FEW,0.00,WeatherDisplay:10.37,2013-07-10 18:09:00,
2013-07-10 13:14:00,90.0,79.3,29.97,NW,318,6.9,6.9,71,0.00,SCT,FEW,0.00,WeatherDisplay:10.37,2013-07-10 18:14:00,
2013-07-10 13:19:00,89.9,80.1,29.96,SSW,210,4.6,4.6,73,0.00,SCT,FEW,0.00,WeatherDisplay:10.37,2013-07-10 18:19:00,
2013-07-10 13:24:00,90.0,81.0,29.96,SSE,164,0.0,0.0,75,0.00,SCT,FEW,0.00,WeatherDisplay:10.37,2013-07-10 18:24:00,
2013-07-10 13:29:00,90.4,79.7,29.95,WNW,289,0.0,0.0,71,0.00,SCT,FEW,0.00,WeatherDisplay:10.37,2013-07-10 18:29:00,
2013-07-10 13:34:00,90.6,79.9,29.95,SW,219,0.0,0.0,71,0.00,SCT,FEW,0.00,WeatherDisplay:10.37,2013-07-10 18:34:00,
2013-07-10 13:39:00,90.9,80.2,29.95,West,269,0.0,0.0,71,0.00,SCT,FEW,0.00,WeatherDisplay:10.37,2013-07-10 18:39:00,
2013-07-10 13:44:00,90.8,80.1,29.95,NW,313,0.0,0.0,71,0.00,SCT,FEW,0.00,WeatherDisplay:10.37,2013-07-10 18:44:00,
2013-07-10 13:49:00,90.9,80.2,29.94,WNW,302,0.0,0.0,71,0.00,SCT,FEW,0.00,WeatherDisplay:10.37,2013-07-10 18:49:00,
2013-07-10 13:54:00,90.8,80.5,29.94,WNW,294,3.5,3.5,72,0.00,SCT,FEW,0.00,WeatherDisplay:10.37,2013-07-10 18:54:00,